Weather History for KCBK - January, 2013

Change the Weather History Date:

Wednesday, January 16, 2013

  Actual Average (KGLD) Record (KGLD)
Temperature  
Mean Temperature 39 °F 30 °F  
Max Temperature 50 °F 42 °F 65 °F (1951)
Min Temperature 28 °F 17 °F -11 °F (1930)
Degree Days  
Heating Degree Days 26 35  
Month to date heating degree days 562  
Since 1 July heating degree days 2969  
Cooling Degree Days 0 0  
Month to date cooling degree days 0  
Year to date cooling degree days 0  
Moisture  
Dew Point 29 °F    
Average Humidity 74    
Maximum Humidity 93    
Minimum Humidity 43    
Precipitation  
Precipitation 0.00 in 0.01 in 0.18 in (1956)
Month to date precipitation 0.18  
Year to date precipitation 0.18  
Snow  
Snow 0.00 in 0.10 in - ()
Month to date snowfall 2.8  
Since 1 July snowfall 15.5  
Snow Depth -    
Sea Level Pressure  
Sea Level Pressure 30.14 in    
Wind  
Wind Speed 14 mph (NW)    
Max Wind Speed 28 mph    
Max Gust Speed 32 mph    
Visibility 10 miles    
Events      
T = Trace of Precipitation, MM = Missing Value Source: NWS Daily Summary

Daily Weather History Graph

Daily Weather History Graph

Search for Another Location

Airport or City:

Trip Planner

Search our weather history database for the weather conditions in past years. The results will help you decide how hot, cold, wet, or windy it might be!

Date:

Astronomy

Jan. 16, 2013 Rise Set
Actual Time 8:02 AM CST 5:46 PM CST
Civil Twilight 7:32 AM CST 6:15 PM CST
Nautical Twilight 6:59 AM CST 6:48 PM CST
Astronomical Twilight 6:27 AM CST 7:20 PM CST
Moon 10:41 AM CST (1/16) 11:37 PM CST (1/16)
Length of Visible Light 10h 43m
Length of Day
9h 44m
Waxing Crescent, 28% of the Moon is Illuminated
Jan 16
Waxing Crescent
Jan 18
First Quarter
Jan 26
Full
Feb 3
Last Quarter
Feb 10
New

Hourly Weather History & Observations

Time (CST) Temp. Windchill Dew Point Humidity Pressure Visibility Wind Dir Wind Speed Gust Speed Precip Events Conditions
12:15 AM 28.4 °F 18.5 °F 23.0 °F 80% 30.05 in 10.0 mi West 11.5 mph - N/A   Overcast
12:55 AM 30.2 °F 19.8 °F 26.6 °F 86% 30.04 in 10.0 mi West 13.8 mph - N/A   Mostly Cloudy
1:15 AM 32.0 °F 21.6 °F 28.4 °F 87% 30.03 in 10.0 mi WNW 15.0 mph - N/A   Overcast
1:35 AM 32.0 °F 21.2 °F 28.4 °F 87% 30.03 in 10.0 mi WNW 16.1 mph - N/A   Overcast
1:55 AM 32.0 °F 22.5 °F 28.4 °F 87% 30.03 in 10.0 mi WNW 12.7 mph - N/A   Scattered Clouds
2:15 AM 30.2 °F 21.3 °F 26.6 °F 86% 30.03 in 10.0 mi West 10.4 mph - N/A   Scattered Clouds
2:35 AM 30.2 °F 21.9 °F 26.6 °F 86% 30.03 in 10.0 mi West 9.2 mph - N/A   Scattered Clouds
2:55 AM 30.2 °F 20.2 °F 28.4 °F 93% 30.03 in 10.0 mi WNW 12.7 mph - N/A   Mostly Cloudy
3:15 AM 32.0 °F 22.5 °F 28.4 °F 87% 30.03 in 10.0 mi WNW 12.7 mph - N/A   Scattered Clouds
3:35 AM 32.0 °F 23.0 °F 28.4 °F 87% 30.04 in 10.0 mi WNW 11.5 mph - N/A   Mostly Cloudy
4:15 AM 33.8 °F 23.9 °F 28.4 °F 81% 30.04 in 10.0 mi NW 15.0 mph - N/A   Overcast
4:35 AM 33.8 °F 23.5 °F 28.4 °F 81% 30.05 in 10.0 mi NW 16.1 mph - N/A   Overcast
4:55 AM 33.8 °F 23.9 °F 28.4 °F 81% 30.04 in 10.0 mi NW 15.0 mph - N/A   Overcast
5:15 AM 33.8 °F 23.2 °F 28.4 °F 81% 30.05 in 10.0 mi NW 17.3 mph 23.0 mph N/A   Overcast
5:35 AM 33.8 °F 23.9 °F 28.4 °F 81% 30.04 in 10.0 mi NW 15.0 mph - N/A   Mostly Cloudy
5:55 AM 33.8 °F 23.5 °F 28.4 °F 81% 30.05 in 10.0 mi NW 16.1 mph - N/A   Mostly Cloudy
6:15 AM 33.8 °F 23.5 °F 28.4 °F 81% 30.05 in 10.0 mi NW 16.1 mph - N/A   Overcast
6:35 AM 33.8 °F 23.9 °F 28.4 °F 81% 30.05 in 10.0 mi NW 15.0 mph - N/A   Overcast
6:55 AM 33.8 °F 23.9 °F 28.4 °F 81% 30.07 in 10.0 mi NW 15.0 mph - N/A   Scattered Clouds
7:15 AM 32.0 °F 22.5 °F 28.4 °F 87% 30.07 in 10.0 mi NW 12.7 mph - N/A   Clear
7:35 AM 32.0 °F 21.2 °F 26.6 °F 80% 30.07 in 10.0 mi NW 16.1 mph - N/A   Clear
7:55 AM 32.0 °F 21.6 °F 26.6 °F 80% 30.08 in 10.0 mi NW 15.0 mph - N/A   Clear
8:15 AM 32.0 °F 22.1 °F 26.6 °F 80% 30.09 in 10.0 mi NW 13.8 mph - N/A   Clear
8:35 AM 32.0 °F 22.1 °F 26.6 °F 80% 30.10 in 10.0 mi NW 13.8 mph - N/A   Clear
8:55 AM 32.0 °F 21.2 °F 26.6 °F 80% 30.11 in 10.0 mi WNW 16.1 mph - N/A   Clear
9:15 AM 33.8 °F 23.5 °F 28.4 °F 81% 30.11 in 10.0 mi WNW 16.1 mph - N/A   Clear
9:55 AM 37.4 °F 28.5 °F 28.4 °F 70% 30.13 in 10.0 mi NW 15.0 mph - N/A   Clear
10:15 AM 41.0 °F 32.5 °F 28.4 °F 61% 30.12 in 10.0 mi NW 17.3 mph 25.3 mph N/A   Clear
10:35 AM 42.8 °F 34.3 °F 28.4 °F 57% 30.12 in 10.0 mi NW 19.6 mph - N/A   Clear
10:55 AM 44.6 °F 36.9 °F 28.4 °F 53% 30.12 in 10.0 mi NW 18.4 mph 23.0 mph N/A   Clear
11:15 AM 44.6 °F 37.2 °F 28.4 °F 53% 30.13 in 10.0 mi NW 17.3 mph 26.5 mph N/A   Clear
11:35 AM 46.4 °F 39.2 °F 28.4 °F 50% 30.12 in 10.0 mi NW 18.4 mph 24.2 mph N/A   Clear
11:55 AM 46.4 °F 39.0 °F 28.4 °F 50% 30.12 in 10.0 mi NW 19.6 mph 25.3 mph N/A   Clear
12:15 PM 48.2 °F - 30.2 °F 50% 30.12 in 10.0 mi NW 18.4 mph 25.3 mph N/A   Clear
12:35 PM 48.2 °F - 28.4 °F 46% 30.12 in 10.0 mi NNW 23.0 mph - N/A   Clear
12:55 PM 48.2 °F - 30.2 °F 50% 30.12 in 10.0 mi NW 17.3 mph - N/A   Clear
1:15 PM 50.0 °F - 30.2 °F 47% 30.11 in 10.0 mi NW 24.2 mph 29.9 mph N/A   Clear
1:55 PM 50.0 °F - 30.2 °F 47% 30.11 in 10.0 mi NNW 19.6 mph 29.9 mph N/A   Clear
2:15 PM 50.0 °F - 30.2 °F 47% 30.11 in 10.0 mi NW 27.6 mph 32.2 mph N/A   Clear
2:55 PM 50.0 °F - 30.2 °F 47% 30.12 in 10.0 mi NNW 23.0 mph 29.9 mph N/A   Clear
3:15 PM 50.0 °F - 30.2 °F 47% 30.12 in 10.0 mi NW 23.0 mph - N/A   Clear
3:35 PM 50.0 °F - 28.4 °F 43% 30.13 in 10.0 mi NNW 25.3 mph 31.1 mph N/A   Clear
3:55 PM 50.0 °F - 28.4 °F 43% 30.14 in 10.0 mi NNW 21.9 mph 28.8 mph N/A   Clear
4:15 PM 50.0 °F - 28.4 °F 43% 30.14 in 10.0 mi NNW 25.3 mph 28.8 mph N/A   Clear
4:55 PM 46.4 °F 39.0 °F 28.4 °F 50% 30.16 in 10.0 mi NNW 19.6 mph 24.2 mph N/A   Clear
5:35 PM 42.8 °F 37.0 °F 30.2 °F 61% 30.18 in 10.0 mi NNW 10.4 mph - N/A   Clear
5:55 PM 37.4 °F 30.3 °F 30.2 °F 75% 30.18 in 10.0 mi NW 10.4 mph - N/A   Clear
6:15 PM 37.4 °F 30.3 °F 30.2 °F 75% 30.20 in 10.0 mi NW 10.4 mph - N/A   Clear
6:35 PM 35.6 °F 29.9 °F 30.2 °F 81% 30.21 in 10.0 mi NW 6.9 mph - N/A   Clear
6:55 PM 33.8 °F 25.8 °F 30.2 °F 87% 30.22 in 10.0 mi NW 10.4 mph - N/A   Clear
7:15 PM 33.8 °F 26.4 °F 30.2 °F 87% 30.23 in 10.0 mi WNW 9.2 mph - N/A   Clear
7:35 PM 33.8 °F 26.4 °F 30.2 °F 87% 30.24 in 10.0 mi NW 9.2 mph - N/A   Clear
7:55 PM 33.8 °F 25.8 °F 30.2 °F 87% 30.25 in 10.0 mi WNW 10.4 mph - N/A   Clear
8:15 PM 32.0 °F 23.0 °F 28.4 °F 87% 30.26 in 10.0 mi West 11.5 mph - N/A   Clear
8:35 PM 33.8 °F 25.3 °F 30.2 °F 87% 30.26 in 10.0 mi WNW 11.5 mph - N/A   Clear
8:55 PM 32.0 °F 24.2 °F 30.2 °F 93% 30.27 in 10.0 mi WNW 9.2 mph - N/A   Clear
9:15 PM 32.0 °F 23.6 °F 30.2 °F 93% 30.27 in 10.0 mi WNW 10.4 mph - N/A   Clear
9:35 PM 32.0 °F 24.8 °F 28.4 °F 87% 30.29 in 10.0 mi NW 8.1 mph - N/A   Clear
9:55 PM 32.0 °F 23.6 °F 28.4 °F 87% 30.29 in 10.0 mi NW 10.4 mph - N/A   Clear
10:15 PM 32.0 °F 23.6 °F 28.4 °F 87% 30.30 in 10.0 mi WNW 10.4 mph - N/A   Clear
10:35 PM 32.0 °F 22.5 °F 30.2 °F 93% 30.31 in 10.0 mi WNW 12.7 mph - N/A   Clear
10:55 PM 32.0 °F 23.6 °F 28.4 °F 87% 30.31 in 10.0 mi NW 10.4 mph - N/A   Clear
11:15 PM 32.0 °F 23.6 °F 28.4 °F 87% 30.31 in 10.0 mi WNW 10.4 mph - N/A   Clear
11:35 PM 32.0 °F 22.5 °F 28.4 °F 87% 30.32 in 10.0 mi WNW 12.7 mph - N/A   Clear
11:55 PM 32.0 °F 23.0 °F 28.4 °F 87% 30.32 in 10.0 mi WNW 11.5 mph - N/A   Clear